Location: T�bingen+AIT
(48.5342°N, 9.0700°E)
Time: 20:29:20
(UTC+02:00)

USA 186 - Pass Details

Date: 14 September 2017
Orbit: 261 x 439 km, 96.9° (Epoch: 19 September)

Event Time Altitude Azimuth Distance (km) Brightness Sun altitude
Exits shadow 20:46:20 12° 156° (SSE) 1,232 3.7 -11.8°
Maximum altitude 20:48:54 62° 76° (ENE) 392 1.3 -12.2°
Drops below altitude 10° 20:51:33 10° 354° (N) 1,259 4.5 -12.6°
Sets 20:53:23 0° 351° (N) 2,065 5.7 -12.9°
